This demonstration page uses our WeatherBlox Daily Observations layout. Learn more.

Left ArrowRight Arrow

34.16533, -84.80231

Hourly Observations for March 3, 2017

Temp ( °F °C ) Dew Point ( °F °C ) Humidity (%) Winds ( mph kmh ) Pressure ( in mb ) Visibility ( mi km ) Precip ( " mm )
12:53 am 00:53 Clear 32 0 27 -2.8 82 82 Calm 30.40 1029 10 16 0.00 0.00
1:53 am 01:53 Clear 32 0 27 -2.8 82 82 Calm 30.40 1029 10 16 0.00 0.00
2:53 am 02:53 Clear 30 -1.1 26 -3.3 85 85 Calm 30.40 1029 10 16 0.00 0.00
3:53 am 03:53 Clear 28 -2.2 26 -3.3 92 92 Calm 30.41 1030 10 16 0.00 0.00
4:53 am 04:53 Clear 28 -2.2 25 -3.9 88 88 Calm 30.42 1030 10 16 0.00 0.00
5:53 am 05:53 Clear 29 -1.7 26 -3.3 89 89 Calm 30.43 1031 10 16 0.00 0.00
6:53 am 06:53 Clear 28 -2.2 25 -3.9 88 88 Calm 30.45 1031 10 16 0.00 0.00
7:53 am 07:53 Sunny 31 -0.6 28 -2.2 89 89 Calm 30.48 1032 10 16 0.00 0.00
8:53 am 08:53 Sunny 39 3.9 30 -1.1 70 70 Calm 30.51 1033 10 16 0.00 0.00
9:51 am 09:51 Hazy 48 9 28 -2 46 46 Calm 30.53 1034 3 4 0.00 0.00
9:53 am 09:53 Hazy 48 8.9 29 -1.7 48 48 Calm 30.53 1034 3 5 0.00 0.00
10:53 am 10:53 Sunny 50 10 24 -4.4 36 36 N 9 15 30.54 1034 10 16 0.00 0.00
11:53 am 11:53 Sunny 51 10.6 22 -5.6 32 32 NNW 9 15 30.54 1034 7 11 0.00 0.00
12:53 pm 12:53 Sunny 53 11.7 22 -5.6 30 30 VRB 6 9 30.53 1034 10 16 0.00 0.00
1:53 pm 13:53 Sunny 54 12.2 23 -5 30 30 VRB 3 6 30.50 1033 10 16 0.00 0.00
2:53 pm 14:53 Sunny 56 13.3 22 -5.6 27 27 VRB 7 11 30.49 1032 10 16 0.00 0.00
3:53 pm 15:53 Sunny 56 13.3 18 -7.8 22 22 Calm 30.49 1033 10 16 0.00 0.00
4:53 pm 16:53 Sunny 55 12.8 18 -7.8 23 23 NNW 8 13 30.50 1033 10 16 0.00 0.00
5:53 pm 17:53 Sunny 52 11.1 12 -11.1 20 20 N 9 15 30.51 1033 10 16 0.00 0.00
6:53 pm 18:53 Clear 49 9.4 14 -10 25 25 NNW 5 7 30.53 1034 10 16 0.00 0.00
7:53 pm 19:53 Clear 38 3.3 22 -5.6 52 52 Calm 30.54 1034 10 16 0.00 0.00
8:53 pm 20:53 Clear 39 3.9 20 -6.7 46 46 Calm 30.55 1035 10 16 0.00 0.00
9:53 pm 21:53 Clear 33 0.6 23 -5 66 66 Calm 30.56 1035 10 16 0.00 0.00
10:53 pm 22:53 Clear 32 0 23 -5 69 69 Calm 30.56 1035 10 16 0.00 0.00
11:53 pm 23:53 Clear 35 1.7 20 -6.7 54 54 Calm 30.56 1035 10 16 0.00 0.00

Powered by AerisWeather